sat.trackr.live / text

‹ back to catalog

STARLINK-5884

NORAD 55957 · 2023-037AV

PAYLOAD ACTIVE UNKNOWN

§ Identity

Operator
Country
US
Launch date
2023-03-17
Launch site
AFWTR
Launch vehicle
Mass (kg)
RCS (m²)

Purposes: comms

External: N2YO · Heavens-Above · Gunter

§ Orbital elements

Epoch: 2026-09-20T21:49:26.780736Z

Period
96.11 min
Inclination
70.0012°
Eccentricity
0.0002945
Mean motion
14.98334948 rev/d
Perigee alt
570.0 km
Apogee alt
574.1 km
Semi-major
6,950.2 km
B*
2.1592e-4
RAAN
132.3020°
Arg perigee
261.7684°
Mean anomaly
98.3141°
Rev number
19,371

§ Raw data

STARLINK-58841 55957U 23037AV  26263.90933774  .00002485  00000+0  21592-3 0  99972 55957  70.0012 132.3020 0002945 261.7684  98.3141 14.98334948193718

JSON: /api/v1/satellites/55957 · /tle

For live sub-satellite position, see the globe view (requires WebGL).

§ Visibility from observer

Set your observer location to see the next 7 days of passes ≥ 10°. The values pass through the URL so the page stays shareable.

No JS? Fill the form by hand. The geolocation button needs JavaScript.